Location: Newark
(59.4564°N, 26.6917°E)
Time: 19:07:01
(UTC+00:00)

SR - Pass Details

Date: 26 November 2019
Orbit: 573 x 882 km, 66.7° (Epoch: 15 December)

Event Time Altitude Azimuth Distance (km) Brightness Sun altitude
Rises 18:18:25 0° 308° (NW) 3,469 ? -35.2°
Reaches altitude 10° 18:20:54 10° 309° (NW) 2,544 ? -35.5°
Enters shadow 18:24:30 39° 312° (NW) 1,308 ? -36.0°
Maximum altitude 18:26:54 86° 38° (NE) 892 - -36.2°
Drops below altitude 10° 18:32:47 10° 129° (SE) 2,507 - -36.9°
Sets 18:35:13 0° 130° (SE) 3,415 - -37.2°
